This demonstration page uses our WeatherBlox Daily Observations layout. Learn more.

Left ArrowRight Arrow

36.19886, -115.1175

Hourly Observations for February 8, 2017

Temp ( °F °C ) Dew Point ( °F °C ) Humidity (%) Winds ( mph kmh ) Pressure ( in mb ) Visibility ( mi km ) Precip ( " mm )
12:53 am 00:53 Clear 53 11.7 46 7.8 77 77 Calm 30.05 1018 10 16 0.00 0.00
1:53 am 01:53 Clear 55 12.8 47 8.3 74 74 NE 6 9 30.07 1018 10 16 0.00 0.00
2:53 am 02:53 Clear 53 11.7 47 8.3 80 80 NNE 7 11 30.07 1018 10 16 0.00 0.00
3:53 am 03:53 Clear 53 11.7 47 8.3 80 80 N 6 9 30.08 1019 10 16 0.00 0.00
4:53 am 04:53 Clear 51 10.6 46 7.8 83 83 N 6 9 30.10 1019 10 16 0.00 0.00
5:53 am 05:53 Clear 51 10.6 46 7.8 83 83 N 6 9 30.14 1021 10 16 0.00 0.00
6:53 am 06:53 Sunny 50 10 45 7.2 83 83 NW 6 9 30.16 1021 10 16 0.00 0.00
7:53 am 07:53 Sunny 55 12.8 46 7.8 72 72 NNE 5 7 30.18 1022 10 16 0.00 0.00
8:53 am 08:53 Sunny 58 14.4 48 8.9 70 70 E 5 7 30.19 1022 10 16 0.00 0.00
9:53 am 09:53 Sunny 60 15.6 48 8.9 65 65 SE 5 7 30.20 1023 10 16 0.00 0.00
10:53 am 10:53 Mostly Sunny 63 17.2 48 8.9 58 58 Calm 30.20 1023 10 16 0.00 0.00
11:53 am 11:53 Sunny 64 17.8 48 8.9 56 56 SSE 5 7 30.18 1022 10 16 0.00 0.00
12:53 pm 12:53 Sunny 66 18.9 49 9.4 54 54 SSE 7 11 30.15 1021 10 16 0.00 0.00
1:53 pm 13:53 Mostly Sunny 66 18.9 49 9.4 54 54 SE 8 13 30.13 1020 10 16 0.00 0.00
2:53 pm 14:53 Sunny 67 19.4 48 8.9 51 51 SE 6 9 30.13 1020 10 16 0.00 0.00
3:53 pm 15:53 Sunny 67 19.4 48 8.9 51 51 E 5 7 30.12 1020 10 16 0.00 0.00
4:53 pm 16:53 Sunny 66 18.9 48 8.9 52 52 ENE 5 7 30.12 1020 10 16 0.00 0.00
5:53 pm 17:53 Clear 64 17.8 48 8.9 56 56 Calm 30.13 1020 10 16 0.00 0.00
6:53 pm 18:53 Clear 63 17.2 48 8.9 58 58 Calm 30.16 1021 10 16 0.00 0.00
7:53 pm 19:53 Clear 60 15.6 49 9.4 67 67 NW 5 7 30.16 1021 10 16 0.00 0.00
8:53 pm 20:53 Clear 59 15 49 9.4 69 69 NW 5 7 30.17 1022 10 16 0.00 0.00
9:53 pm 21:53 Clear 58 14.4 49 9.4 72 72 Calm 30.18 1022 10 16 0.00 0.00
10:53 pm 22:53 Clear 57 13.9 49 9.4 74 74 WNW 3 6 30.19 1023 10 16 0.00 0.00
11:53 pm 23:53 Clear 55 12.8 48 8.9 77 77 WNW 5 7 30.19 1023 10 16 0.00 0.00

Powered by AerisWeather